24-06-2022, 00:00:02,    191,    0.0,   14.7,   0.00,   0.00, 1004.9,   88.5, -999.0
24-06-2022, 00:00:11,    193,    0.0,   14.7,   0.00,   0.00, 1004.9,   88.5, -999.0
24-06-2022, 00:00:21,    196,    0.0,   14.6,   0.00,   0.00, 1004.9,   88.6, -999.0
24-06-2022, 00:00:31,    183,    0.0,   14.6,   0.00,   0.00, 1004.9,   88.5, -999.0
24-06-2022, 00:00:41,    184,    0.0,   14.6,   0.00,   0.00, 1004.9,   88.5, -999.0
24-06-2022, 00:00:51,    205,    0.2,   14.7,   0.00,   0.00, 1005.0,   88.8, -999.0
24-06-2022, 00:01:01,    162,    0.8,   14.7,   0.00,   0.00, 1005.0,   89.1, -999.0
24-06-2022, 00:01:11,    221,    1.4,   14.7,   0.00,   0.00, 1005.0,   89.0, -999.0
24-06-2022, 00:01:21,    214,    0.5,   14.6,   0.00,   0.00, 1005.0,   88.9, -999.0
24-06-2022, 00:01:31,    175,    0.0,   14.6,   0.00,   0.00, 1004.9,   88.8, -999.0
24-06-2022, 00:01:41,    237,    0.8,   14.6,   0.00,   0.00, 1004.9,   88.9, -999.0
24-06-2022, 00:01:51,    200,    0.5,   14.6,   0.00,   0.00, 1004.9,   88.7, -999.0
24-06-2022, 00:02:01,    199,    0.0,   14.6,   0.00,   0.00, 1004.8,   88.6, -999.0
24-06-2022, 00:02:11,    185,    0.6,   14.6,   0.00,   0.00, 1004.9,   88.9, -999.0
24-06-2022, 00:02:21,    134,    1.3,   14.7,   0.00,   0.00, 1004.9,   89.0, -999.0
24-06-2022, 00:02:31,    159,    1.2,   14.6,   0.00,   0.00, 1004.9,   89.1, -999.0
24-06-2022, 00:02:40,    154,    0.3,   14.6,   0.00,   0.00, 1004.9,   88.9, -999.0
24-06-2022, 00:02:50,    154,    0.0,   14.6,   0.00,   0.00, 1004.8,   88.7, -999.0
24-06-2022, 00:03:01,    155,    0.0,   14.4,   0.00,   0.00, 1004.8,   88.8, -999.0
24-06-2022, 00:03:10,    156,    0.0,   14.5,   0.00,   0.00, 1004.8,   88.9, -999.0
24-06-2022, 00:03:20,    156,    0.0,   14.4,   0.00,   0.00, 1004.8,   88.9, -999.0
24-06-2022, 00:03:30,    156,    0.0,   14.5,   0.00,   0.00, 1004.8,   88.8, -999.0
24-06-2022, 00:03:40,    156,    0.0,   14.5,   0.00,   0.00, 1004.8,   88.8, -999.0
24-06-2022, 00:03:50,    156,    0.0,   14.5,   0.00,   0.00, 1004.8,   89.0, -999.0
24-06-2022, 00:04:00,    156,    0.0,   14.5,   0.00,   0.00, 1004.8,   89.0, -999.0
24-06-2022, 00:04:10,    156,    0.0,   14.5,   0.00,   0.00, 1004.7,   89.1, -999.0
24-06-2022, 00:04:20,    156,    0.0,   14.5,   0.00,   0.00, 1004.8,   89.2, -999.0
24-06-2022, 00:04:30,    156,    0.0,   14.6,   0.00,   0.00, 1004.8,   89.3, -999.0
24-06-2022, 00:04:40,    177,    0.0,   14.6,   0.00,   0.00, 1004.8,   89.4, -999.0
24-06-2022, 00:04:50,    181,    0.0,   14.6,   0.00,   0.00, 1004.8,   89.3, -999.0
24-06-2022, 00:05:00,    180,    0.0,   14.6,   0.00,   0.00, 1004.8,   89.3, -999.0
24-06-2022, 00:05:10,    180,    0.0,   14.6,   0.00,   0.00, 1004.8,   89.3, -999.0
24-06-2022, 00:05:19,    182,    0.0,   14.7,   0.00,   0.00, 1004.8,   89.3, -999.0
24-06-2022, 00:05:30,    183,    0.0,   14.6,   0.00,   0.00, 1004.8,   89.3, -999.0
24-06-2022, 00:05:40,    183,    0.0,   14.6,   0.00,   0.00, 1004.7,   89.4, -999.0
24-06-2022, 00:05:49,    183,    0.0,   14.6,   0.00,   0.00, 1004.7,   89.4, -999.0
24-06-2022, 00:05:59,    183,    0.0,   14.6,   0.00,   0.00, 1004.8,   89.4, -999.0
24-06-2022, 00:06:10,    183,    0.0,   14.6,   0.00,   0.00, 1004.8,   89.3, -999.0
24-06-2022, 00:06:19,    183,    0.0,   14.6,   0.00,   0.00, 1004.8,   89.4, -999.0
24-06-2022, 00:06:29,    185,    0.0,   14.7,   0.00,   0.00, 1004.7,   89.5, -999.0
24-06-2022, 00:06:39,    183,    0.0,   14.7,   0.00,   0.00, 1004.7,   89.5, -999.0
24-06-2022, 00:06:49,    182,    0.0,   14.6,   0.00,   0.00, 1004.7,   89.5, -999.0
24-06-2022, 00:06:59,    182,    0.0,   14.6,   0.00,   0.00, 1004.8,   89.4, -999.0
24-06-2022, 00:07:09,    182,    0.0,   14.6,   0.00,   0.00, 1004.8,   89.4, -999.0
24-06-2022, 00:07:19,    182,    0.0,   14.6,   0.00,   0.00, 1004.8,   89.4, -999.0
24-06-2022, 00:07:29,    182,    0.0,   14.7,   0.00,   0.00, 1004.8,   89.5, -999.0
24-06-2022, 00:07:39,    194,    0.0,   14.6,   0.00,   0.00, 1004.8,   89.5, -999.0
24-06-2022, 00:07:49,    204,    0.0,   14.6,   0.00,   0.00, 1004.8,   89.5, -999.0
24-06-2022, 00:07:59,    204,    0.0,   14.5,   0.00,   0.00, 1004.8,   89.5, -999.0
24-06-2022, 00:08:09,    204,    0.0,   14.6,   0.00,   0.00, 1004.8,   89.4, -999.0
24-06-2022, 00:08:19,    205,    0.0,   14.7,   0.00,   0.00, 1004.8,   89.4, -999.0
24-06-2022, 00:08:28,    224,    1.1,   14.7,   0.00,   0.00, 1004.9,   89.8, -999.0
24-06-2022, 00:08:39,    214,    0.2,   14.7,   0.00,   0.00, 1004.9,   89.7, -999.0
24-06-2022, 00:08:48,    215,    0.6,   14.7,   0.00,   0.00, 1004.9,   89.6, -999.0
24-06-2022, 00:08:58,    223,    0.5,   14.7,   0.00,   0.00, 1004.9,   89.6, -999.0
24-06-2022, 00:09:09,    222,    0.0,   14.6,   0.00,   0.00, 1004.8,   89.3, -999.0
24-06-2022, 00:09:18,    222,    0.0,   14.6,   0.00,   0.00, 1004.8,   89.3, -999.0
24-06-2022, 00:09:28,    222,    0.0,   14.6,   0.00,   0.00, 1004.8,   89.3, -999.0
24-06-2022, 00:09:38,    218,    0.0,   14.6,   0.00,   0.00, 1004.8,   89.4, -999.0
24-06-2022, 00:09:48,    223,    0.0,   14.6,   0.00,   0.00, 1004.8,   89.5, -999.0
24-06-2022, 00:09:58,    223,    0.0,   14.7,   0.00,   0.00, 1004.8,   89.6, -999.0
24-06-2022, 00:10:08,    223,    0.0,   14.6,   0.00,   0.00, 1004.8,   89.6, -999.0
24-06-2022, 00:10:18,    223,    0.0,   14.6,   0.00,   0.00, 1004.8,   89.7, -999.0
24-06-2022, 00:10:28,    223,    0.0,   14.6,   0.00,   0.00, 1004.8,   89.7, -999.0
24-06-2022, 00:10:38,    223,    0.0,   14.6,   0.00,   0.00, 1004.8,   89.3, -999.0
24-06-2022, 00:10:48,    222,    0.0,   14.5,   0.00,   0.00, 1004.8,   89.4, -999.0
24-06-2022, 00:10:58,    222,    0.0,   14.5,   0.00,   0.00, 1004.7,   89.5, -999.0
24-06-2022, 00:11:08,    154,    0.0,   14.5,   0.00,   0.00, 1004.7,   89.4, -999.0
24-06-2022, 00:11:18,    156,    0.0,   14.6,   0.00,   0.00, 1004.8,   89.4, -999.0
24-06-2022, 00:11:27,    153,    0.0,   14.6,   0.00,   0.00, 1004.8,   89.6, -999.0
24-06-2022, 00:11:38,    153,    0.0,   14.6,   0.00,   0.00, 1004.8,   89.5, -999.0
24-06-2022, 00:11:48,    153,    0.0,   14.5,   0.00,   0.00, 1004.8,   89.6, -999.0
24-06-2022, 00:11:57,    152,    0.0,   14.7,   0.00,   0.00, 1004.8,   89.6, -999.0
24-06-2022, 00:12:07,    154,    0.0,   14.6,   0.00,   0.00, 1004.8,   89.6, -999.0
24-06-2022, 00:12:18,    154,    0.0,   14.6,   0.00,   0.00, 1004.8,   89.6, -999.0
24-06-2022, 00:12:27,    154,    0.0,   14.6,   0.00,   0.00, 1004.8,   89.6, -999.0
24-06-2022, 00:12:37,    154,    0.0,   14.6,   0.00,   0.00, 1004.7,   89.5, -999.0
24-06-2022, 00:12:47,    130,    0.5,   14.6,   0.00,   0.00, 1004.8,   89.8, -999.0
24-06-2022, 00:12:57,    130,    0.4,   14.7,   0.00,   0.00, 1004.8,   89.6, -999.0
24-06-2022, 00:13:07,    133,    0.0,   14.6,   0.00,   0.00, 1004.8,   89.4, -999.0
24-06-2022, 00:13:17,    150,    0.0,   14.5,   0.00,   0.00, 1004.8,   89.5, -999.0
24-06-2022, 00:13:27,    151,    0.0,   14.6,   0.00,   0.00, 1004.8,   89.6, -999.0
24-06-2022, 00:13:37,    176,    1.2,   14.6,   0.00,   0.00, 1004.9,   89.9, -999.0
24-06-2022, 00:13:47,    165,    0.5,   14.6,   0.00,   0.00, 1004.9,   89.8, -999.0
24-06-2022, 00:13:57,    164,    0.1,   14.6,   0.00,   0.00, 1004.8,   89.5, -999.0
24-06-2022, 00:14:07,    165,    0.0,   14.5,   0.00,   0.00, 1004.8,   89.5, -999.0
24-06-2022, 00:14:17,    165,    0.0,   14.6,   0.00,   0.00, 1004.7,   89.5, -999.0
24-06-2022, 00:14:27,    180,    0.0,   14.7,   0.00,   0.00, 1004.7,   89.5, -999.0
24-06-2022, 00:14:36,    195,    0.0,   14.5,   0.00,   0.00, 1004.8,   89.7, -999.0
24-06-2022, 00:14:47,    196,    0.0,   14.5,   0.00,   0.00, 1004.8,   89.6, -999.0
24-06-2022, 00:14:56,    196,    0.0,   14.5,   0.00,   0.00, 1004.7,   89.5, -999.0
24-06-2022, 00:15:06,    196,    0.0,   14.5,   0.00,   0.00, 1004.7,   89.4, -999.0
24-06-2022, 00:15:16,    196,    0.0,   14.5,   0.00,   0.00, 1004.7,   89.5, -999.0
24-06-2022, 00:15:26,    197,    0.0,   14.5,   0.00,   0.00, 1004.8,   89.5, -999.0
24-06-2022, 00:15:36,    198,    0.0,   14.5,   0.00,   0.00, 1004.7,   89.5, -999.0
24-06-2022, 00:15:46,    198,    0.0,   14.5,   0.00,   0.00, 1004.7,   89.5, -999.0
24-06-2022, 00:15:56,    197,    0.0,   14.5,   0.00,   0.00, 1004.8,   89.5, -999.0
24-06-2022, 00:16:06,    197,    0.0,   14.5,   0.00,   0.00, 1004.7,   89.6, -999.0
24-06-2022, 00:16:16,    198,    0.0,   14.5,   0.00,   0.00, 1004.7,   89.6, -999.0
24-06-2022, 00:16:26,    198,    0.0,   14.5,   0.00,   0.00, 1004.7,   89.6, -999.0
24-06-2022, 00:16:36,    199,    0.0,   14.5,   0.00,   0.00, 1004.7,   89.6, -999.0
24-06-2022, 00:16:46,    199,    0.0,   14.5,   0.00,   0.00, 1004.7,   89.6, -999.0
24-06-2022, 00:16:56,    199,    0.0,   14.4,   0.00,   0.00, 1004.7,   89.5, -999.0
24-06-2022, 00:17:06,    199,    0.0,   14.3,   0.00,   0.00, 1004.7,   89.6, -999.0
24-06-2022, 00:17:16,    199,    0.0,   14.4,   0.00,   0.00, 1004.7,   89.6, -999.0
24-06-2022, 00:17:26,    200,    0.0,   14.5,   0.00,   0.00, 1004.7,   89.7, -999.0
24-06-2022, 00:17:35,    200,    0.0,   14.5,   0.00,   0.00, 1004.7,   89.6, -999.0
24-06-2022, 00:17:45,    200,    0.0,   14.4,   0.00,   0.00, 1004.7,   89.6, -999.0
24-06-2022, 00:17:56,    200,    0.0,   14.4,   0.00,   0.00, 1004.7,   89.8, -999.0
24-06-2022, 00:18:05,    199,    0.0,   14.5,   0.00,   0.00, 1004.7,   89.7, -999.0
24-06-2022, 00:18:15,    199,    0.0,   14.5,   0.00,   0.00, 1004.7,   89.8, -999.0
24-06-2022, 00:18:26,    199,    0.0,   14.5,   0.00,   0.00, 1004.7,   89.8, -999.0
24-06-2022, 00:18:35,    199,    0.0,   14.5,   0.00,   0.00, 1004.7,   89.8, -999.0
24-06-2022, 00:18:45,    200,    0.0,   14.5,   0.00,   0.00, 1004.7,   90.0, -999.0
24-06-2022, 00:18:55,    185,    0.0,   14.5,   0.00,   0.00, 1004.7,   89.9, -999.0
24-06-2022, 00:19:05,    185,    0.0,   14.5,   0.00,   0.00, 1004.7,   89.9, -999.0
24-06-2022, 00:19:15,    185,    0.0,   14.5,   0.00,   0.00, 1004.7,   89.7, -999.0
24-06-2022, 00:19:25,    185,    0.0,   14.4,   0.00,   0.00, 1004.7,   89.9, -999.0
24-06-2022, 00:19:35,    185,    0.0,   14.4,   0.00,   0.00, 1004.7,   89.8, -999.0
24-06-2022, 00:19:45,    133,    0.0,   14.6,   0.00,   0.00, 1004.7,   89.9, -999.0
24-06-2022, 00:19:55,    134,    0.0,   14.5,   0.00,   0.00, 1004.7,   89.8, -999.0
24-06-2022, 00:20:05,    147,    0.0,   14.5,   0.00,   0.00, 1004.7,   90.0, -999.0
24-06-2022, 00:20:14,    147,    0.0,   14.5,   0.00,   0.00, 1004.7,   89.9, -999.0
24-06-2022, 00:20:25,    146,    0.0,   14.5,   0.00,   0.00, 1004.7,   90.0, -999.0
24-06-2022, 00:20:35,    146,    0.0,   14.5,   0.00,   0.00, 1004.7,   90.1, -999.0
24-06-2022, 00:20:44,    147,    0.0,   14.6,   0.00,   0.00, 1004.7,   90.0, -999.0
24-06-2022, 00:20:55,    146,    0.0,   14.5,   0.00,   0.00, 1004.7,   90.0, -999.0
24-06-2022, 00:21:05,    146,    0.0,   14.5,   0.00,   0.00, 1004.7,   90.1, -999.0
24-06-2022, 00:21:14,    146,    0.0,   14.5,   0.00,   0.00, 1004.7,   90.1, -999.0
24-06-2022, 00:21:24,    145,    0.0,   14.5,   0.00,   0.00, 1004.7,   90.0, -999.0
24-06-2022, 00:21:34,    146,    0.0,   14.5,   0.00,   0.00, 1004.7,   89.9, -999.0
24-06-2022, 00:21:44,    146,    0.0,   14.5,   0.00,   0.00, 1004.7,   89.9, -999.0
24-06-2022, 00:21:54,    146,    0.0,   14.6,   0.00,   0.00, 1004.7,   90.2, -999.0
24-06-2022, 00:22:04,    149,    0.0,   14.5,   0.00,   0.00, 1004.6,   90.2, -999.0
24-06-2022, 00:22:14,    150,    0.0,   14.5,   0.00,   0.00, 1004.7,   90.1, -999.0
24-06-2022, 00:22:24,    149,    0.0,   14.5,   0.00,   0.00, 1004.6,   90.0, -999.0
24-06-2022, 00:22:34,    150,    1.0,   14.6,   0.00,   0.00, 1004.7,   90.3, -999.0
24-06-2022, 00:22:44,    149,    0.2,   14.6,   0.00,   0.00, 1004.7,   90.2, -999.0
24-06-2022, 00:22:54,    176,    0.7,   14.5,   0.00,   0.00, 1004.7,   90.1, -999.0
24-06-2022, 00:23:04,    155,    0.2,   14.4,   0.00,   0.00, 1004.7,   90.0, -999.0
24-06-2022, 00:23:14,    155,    0.0,   14.5,   0.00,   0.00, 1004.7,   89.8, -999.0
24-06-2022, 00:23:24,    155,    0.0,   14.5,   0.00,   0.00, 1004.7,   90.0, -999.0
24-06-2022, 00:23:34,    155,    0.0,   14.5,   0.00,   0.00, 1004.7,   90.0, -999.0
24-06-2022, 00:23:43,    155,    0.0,   14.5,   0.00,   0.00, 1004.7,   89.9, -999.0
24-06-2022, 00:23:53,    155,    0.0,   14.5,   0.00,   0.00, 1004.6,   90.0, -999.0
24-06-2022, 00:24:04,    155,    0.0,   14.5,   0.00,   0.00, 1004.6,   90.1, -999.0
24-06-2022, 00:24:13,    155,    0.0,   14.5,   0.00,   0.00, 1004.6,   90.2, -999.0
24-06-2022, 00:24:23,    165,    0.2,   14.5,   0.00,   0.00, 1004.7,   90.5, -999.0
24-06-2022, 00:24:33,    169,    0.0,   14.5,   0.00,   0.00, 1004.7,   90.2, -999.0
24-06-2022, 00:24:43,    169,    0.0,   14.5,   0.00,   0.00, 1004.7,   90.1, -999.0
24-06-2022, 00:24:53,    198,    0.0,   14.5,   0.00,   0.00, 1004.6,   90.1, -999.0
24-06-2022, 00:25:03,    217,    0.5,   14.5,   0.00,   0.00, 1004.7,   90.5, -999.0
24-06-2022, 00:25:13,    192,    0.5,   14.5,   0.00,   0.00, 1004.7,   90.4, -999.0
24-06-2022, 00:25:23,    195,    0.1,   14.6,   0.00,   0.00, 1004.7,   90.2, -999.0
24-06-2022, 00:25:33,    197,    0.1,   14.4,   0.00,   0.00, 1004.7,   90.1, -999.0
24-06-2022, 00:25:43,    181,    0.0,   14.4,   0.00,   0.00, 1004.6,   90.0, -999.0
24-06-2022, 00:25:53,    181,    0.0,   14.4,   0.00,   0.00, 1004.7,   90.0, -999.0
24-06-2022, 00:26:03,    178,    0.2,   14.5,   0.00,   0.00, 1004.8,   90.4, -999.0
24-06-2022, 00:26:13,    181,    0.0,   14.4,   0.00,   0.00, 1004.7,   90.2, -999.0
24-06-2022, 00:26:22,    180,    0.0,   14.4,   0.00,   0.00, 1004.7,   90.2, -999.0
24-06-2022, 00:26:33,    180,    0.0,   14.4,   0.00,   0.00, 1004.7,   90.1, -999.0
24-06-2022, 00:26:43,    180,    0.7,   14.4,   0.00,   0.00, 1004.8,   90.5, -999.0
24-06-2022, 00:26:52,    188,    0.0,   14.4,   0.00,   0.00, 1004.7,   90.2, -999.0
24-06-2022, 00:27:02,    186,    0.0,   14.4,   0.00,   0.00, 1004.7,   90.2, -999.0
24-06-2022, 00:27:13,    189,    0.0,   14.4,   0.00,   0.00, 1004.7,   90.2, -999.0
24-06-2022, 00:27:22,    195,    0.0,   14.4,   0.00,   0.00, 1004.7,   90.2, -999.0
24-06-2022, 00:27:32,    195,    0.0,   14.4,   0.00,   0.00, 1004.7,   90.1, -999.0
24-06-2022, 00:27:42,    195,    0.0,   14.4,   0.00,   0.00, 1004.7,   90.1, -999.0
24-06-2022, 00:27:52,    194,    0.0,   14.3,   0.00,   0.00, 1004.7,   90.1, -999.0
24-06-2022, 00:28:02,    195,    0.0,   14.5,   0.00,   0.00, 1004.7,   90.2, -999.0
24-06-2022, 00:28:12,    175,    0.0,   14.4,   0.00,   0.00, 1004.7,   90.3, -999.0
24-06-2022, 00:28:22,    175,    0.0,   14.4,   0.00,   0.00, 1004.7,   90.3, -999.0
24-06-2022, 00:28:32,    174,    0.0,   14.4,   0.00,   0.00, 1004.7,   90.4, -999.0
24-06-2022, 00:28:42,    175,    0.0,   14.5,   0.00,   0.00, 1004.7,   90.3, -999.0
24-06-2022, 00:28:52,    174,    0.0,   14.5,   0.00,   0.00, 1004.7,   90.4, -999.0
24-06-2022, 00:29:02,    174,    0.0,   14.4,   0.00,   0.00, 1004.7,   90.3, -999.0
24-06-2022, 00:29:12,    175,    0.0,   14.4,   0.00,   0.00, 1004.7,   90.3, -999.0
24-06-2022, 00:29:22,    135,    0.0,   14.5,   0.00,   0.00, 1004.7,   90.5, -999.0
24-06-2022, 00:29:31,    135,    0.0,   14.5,   0.00,   0.00, 1004.7,   90.5, -999.0
24-06-2022, 00:29:42,    135,    0.0,   14.4,   0.00,   0.00, 1004.7,   90.5, -999.0
24-06-2022, 00:29:52,    140,    0.0,   14.5,   0.00,   0.00, 1004.7,   90.5, -999.0
24-06-2022, 00:30:01,    140,    0.0,   14.5,   0.00,   0.00, 1004.7,   90.6, -999.0
24-06-2022, 00:30:11,    139,    0.0,   14.5,   0.00,   0.00, 1004.7,   90.6, -999.0
24-06-2022, 00:30:21,    140,    0.0,   14.4,   0.00,   0.00, 1004.7,   90.5, -999.0
24-06-2022, 00:30:31,    139,    0.0,   14.4,   0.00,   0.00, 1004.7,   90.6, -999.0
24-06-2022, 00:30:41,    141,    0.0,   14.5,   0.00,   0.00, 1004.7,   90.7, -999.0
24-06-2022, 00:30:51,    139,    0.0,   14.5,   0.00,   0.00, 1004.7,   90.6, -999.0
24-06-2022, 00:31:01,    143,    0.0,   14.6,   0.00,   0.00, 1004.7,   90.8, -999.0
24-06-2022, 00:31:11,    143,    0.0,   14.6,   0.00,   0.00, 1004.7,   90.7, -999.0
24-06-2022, 00:31:21,    131,    0.0,   14.5,   0.00,   0.00, 1004.7,   90.6, -999.0
24-06-2022, 00:31:31,    131,    0.0,   14.6,   0.00,   0.00, 1004.6,   90.7, -999.0
24-06-2022, 00:31:41,    149,    0.0,   14.5,   0.00,   0.00, 1004.7,   90.7, -999.0
24-06-2022, 00:31:51,    142,    0.0,   14.5,   0.00,   0.00, 1004.8,   90.7, -999.0
24-06-2022, 00:32:01,    141,    0.1,   14.6,   0.00,   0.00, 1004.7,   90.5, -999.0
24-06-2022, 00:32:11,    141,    0.0,   14.6,   0.00,   0.00, 1004.7,   90.4, -999.0
24-06-2022, 00:32:21,    141,    0.0,   14.5,   0.00,   0.00, 1004.7,   90.2, -999.0
24-06-2022, 00:32:31,    141,    0.0,   14.4,   0.00,   0.00, 1004.6,   90.1, -999.0
24-06-2022, 00:32:40,    141,    0.0,   14.5,   0.00,   0.00, 1004.7,   90.2, -999.0
24-06-2022, 00:32:51,    141,    0.0,   14.5,   0.00,   0.00, 1004.7,   90.2, -999.0
24-06-2022, 00:33:00,    141,    0.0,   14.4,   0.00,   0.00, 1004.7,   90.3, -999.0
24-06-2022, 00:33:10,    141,    0.0,   14.5,   0.00,   0.00, 1004.7,   90.3, -999.0
24-06-2022, 00:33:21,    141,    0.0,   14.5,   0.00,   0.00, 1004.7,   90.4, -999.0
24-06-2022, 00:33:30,    141,    0.0,   14.5,   0.00,   0.00, 1004.6,   90.4, -999.0
24-06-2022, 00:33:40,    141,    0.0,   14.5,   0.00,   0.00, 1004.6,   90.3, -999.0
24-06-2022, 00:33:50,    141,    0.0,   14.5,   0.00,   0.00, 1004.7,   90.3, -999.0
24-06-2022, 00:34:00,    141,    0.0,   14.5,   0.00,   0.00, 1004.6,   90.3, -999.0
24-06-2022, 00:34:10,    140,    0.0,   14.4,   0.00,   0.00, 1004.6,   90.3, -999.0
24-06-2022, 00:34:20,    140,    0.0,   14.5,   0.00,   0.00, 1004.6,   90.3, -999.0
24-06-2022, 00:34:30,    140,    0.0,   14.6,   0.00,   0.00, 1004.6,   90.4, -999.0
24-06-2022, 00:34:40,    140,    0.0,   14.6,   0.00,   0.00, 1004.6,   90.5, -999.0
24-06-2022, 00:34:50,    140,    0.0,   14.6,   0.00,   0.00, 1004.6,   90.3, -999.0
24-06-2022, 00:35:00,    143,    0.0,   14.6,   0.00,   0.00, 1004.6,   90.2, -999.0
24-06-2022, 00:35:10,    143,    0.0,   14.6,   0.00,   0.00, 1004.6,   90.3, -999.0
24-06-2022, 00:35:20,    143,    0.0,   14.6,   0.00,   0.00, 1004.6,   90.2, -999.0
24-06-2022, 00:35:30,    142,    0.0,   14.5,   0.00,   0.00, 1004.6,   90.1, -999.0
24-06-2022, 00:35:39,    143,    0.0,   14.5,   0.00,   0.00, 1004.6,   90.1, -999.0
24-06-2022, 00:35:50,    143,    0.0,   14.6,   0.00,   0.00, 1004.6,   90.0, -999.0
24-06-2022, 00:36:00,    147,    0.5,   14.6,   0.00,   0.00, 1004.7,   90.3, -999.0
24-06-2022, 00:36:09,    149,    1.0,   14.5,   0.00,   0.00, 1004.7,   90.3, -999.0
24-06-2022, 00:36:19,    137,    0.9,   14.5,   0.00,   0.00, 1004.7,   90.1, -999.0
24-06-2022, 00:36:29,    145,    0.4,   14.5,   0.00,   0.00, 1004.7,   89.9, -999.0
24-06-2022, 00:36:39,    144,    0.2,   14.4,   0.00,   0.00, 1004.6,   89.9, -999.0
24-06-2022, 00:36:49,    138,    0.8,   14.5,   0.00,   0.00, 1004.7,   89.9, -999.0
24-06-2022, 00:36:59,    140,    0.1,   14.4,   0.00,   0.00, 1004.6,   89.7, -999.0
24-06-2022, 00:37:09,    176,    0.0,   14.3,   0.00,   0.00, 1004.6,   89.5, -999.0
24-06-2022, 00:37:19,    140,    0.5,   14.3,   0.00,   0.00, 1004.7,   90.0, -999.0
24-06-2022, 00:37:29,    138,    0.2,   14.4,   0.00,   0.00, 1004.6,   89.9, -999.0
24-06-2022, 00:37:39,    134,    0.4,   14.4,   0.00,   0.00, 1004.6,   90.0, -999.0
24-06-2022, 00:37:49,    175,    0.0,   14.4,   0.00,   0.00, 1004.6,   89.8, -999.0
24-06-2022, 00:37:59,    174,    0.0,   14.4,   0.00,   0.00, 1004.5,   89.7, -999.0
24-06-2022, 00:38:09,    168,    0.0,   14.4,   0.00,   0.00, 1004.6,   89.9, -999.0
24-06-2022, 00:38:19,    168,    0.0,   14.4,   0.00,   0.00, 1004.5,   89.9, -999.0
24-06-2022, 00:38:29,    168,    0.0,   14.4,   0.00,   0.00, 1004.5,   89.9, -999.0
24-06-2022, 00:38:38,    168,    0.0,   14.3,   0.00,   0.00, 1004.6,   89.9, -999.0
24-06-2022, 00:38:48,    168,    0.0,   14.4,   0.00,   0.00, 1004.5,   90.0, -999.0
24-06-2022, 00:38:59,    177,    0.0,   14.4,   0.00,   0.00, 1004.5,   89.9, -999.0
24-06-2022, 00:39:08,    175,    0.0,   14.4,   0.00,   0.00, 1004.5,   90.0, -999.0
24-06-2022, 00:39:18,    179,    0.0,   14.3,   0.00,   0.00, 1004.6,   90.0, -999.0
24-06-2022, 00:39:28,    177,    0.0,   14.3,   0.00,   0.00, 1004.5,   89.8, -999.0
24-06-2022, 00:39:38,    183,    0.0,   14.3,   0.00,   0.00, 1004.5,   89.6, -999.0
24-06-2022, 00:39:48,    182,    0.0,   14.2,   0.00,   0.00, 1004.5,   89.6, -999.0
24-06-2022, 00:39:58,    141,    0.0,   14.2,   0.00,   0.00, 1004.5,   89.7, -999.0
24-06-2022, 00:40:08,    186,    0.0,   14.2,   0.00,   0.00, 1004.5,   89.6, -999.0
24-06-2022, 00:40:18,    163,    0.4,   14.3,   0.00,   0.00, 1004.6,   89.9, -999.0
24-06-2022, 00:40:28,    165,    0.4,   14.3,   0.00,   0.00, 1004.6,   89.9, -999.0
24-06-2022, 00:40:38,    167,    0.0,   14.2,   0.00,   0.00, 1004.5,   89.5, -999.0
24-06-2022, 00:40:48,    164,    0.2,   14.2,   0.00,   0.00, 1004.6,   89.8, -999.0
24-06-2022, 00:40:58,    163,    0.0,   14.2,   0.00,   0.00, 1004.6,   89.8, -999.0
24-06-2022, 00:41:08,    147,    0.4,   14.2,   0.00,   0.00, 1004.6,   89.8, -999.0
24-06-2022, 00:41:17,    143,    2.0,   14.2,   0.00,   0.00, 1004.7,   90.0, -999.0
24-06-2022, 00:41:28,    154,    0.7,   14.1,   0.00,   0.00, 1004.7,   89.8, -999.0
24-06-2022, 00:41:38,    149,    1.1,   14.0,   0.00,   0.00, 1004.7,   89.6, -999.0
24-06-2022, 00:41:47,    130,    1.6,   14.1,   0.00,   0.00, 1004.7,   89.7, -999.0
24-06-2022, 00:41:57,    168,    0.8,   14.0,   0.00,   0.00, 1004.7,   89.4, -999.0
24-06-2022, 00:42:08,    150,    0.8,   14.0,   0.00,   0.00, 1004.7,   89.6, -999.0
24-06-2022, 00:42:17,    151,    0.1,   14.0,   0.00,   0.00, 1004.6,   89.6, -999.0
24-06-2022, 00:42:27,    151,    0.0,   14.0,   0.00,   0.00, 1004.5,   89.6, -999.0
24-06-2022, 00:42:37,    150,    0.0,   13.9,   0.00,   0.00, 1004.5,   89.7, -999.0
24-06-2022, 00:42:47,    150,    0.0,   14.0,   0.00,   0.00, 1004.5,   89.7, -999.0
24-06-2022, 00:42:57,    163,    0.0,   14.0,   0.00,   0.00, 1004.5,   89.8, -999.0
24-06-2022, 00:43:07,    165,    0.2,   14.0,   0.00,   0.00, 1004.6,   90.0, -999.0
24-06-2022, 00:43:17,    165,    0.0,   13.9,   0.00,   0.00, 1004.5,   89.8, -999.0
24-06-2022, 00:43:27,    165,    0.0,   14.0,   0.00,   0.00, 1004.5,   89.7, -999.0
24-06-2022, 00:43:37,    162,    0.0,   14.0,   0.00,   0.00, 1004.5,   89.9, -999.0
24-06-2022, 00:43:47,    162,    0.0,   13.9,   0.00,   0.00, 1004.5,   90.1, -999.0
24-06-2022, 00:43:57,    143,    1.2,   14.1,   0.00,   0.00, 1004.6,   90.3, -999.0
24-06-2022, 00:44:07,    153,    0.8,   14.1,   0.00,   0.00, 1004.6,   90.2, -999.0
24-06-2022, 00:44:17,    152,    0.2,   13.9,   0.00,   0.00, 1004.6,   90.0, -999.0
24-06-2022, 00:44:27,    158,    0.0,   13.8,   0.00,   0.00, 1004.5,   89.7, -999.0
24-06-2022, 00:44:37,    158,    0.0,   13.9,   0.00,   0.00, 1004.5,   89.6, -999.0
24-06-2022, 00:44:46,    147,    0.2,   14.0,   0.00,   0.00, 1004.6,   90.0, -999.0
24-06-2022, 00:44:56,    150,    0.2,   14.0,   0.00,   0.00, 1004.6,   90.1, -999.0
24-06-2022, 00:45:07,    171,    0.1,   13.9,   0.00,   0.00, 1004.6,   90.0, -999.0
24-06-2022, 00:45:16,    167,    0.1,   13.9,   0.00,   0.00, 1004.6,   89.9, -999.0
24-06-2022, 00:45:26,    148,    1.0,   13.9,   0.00,   0.00, 1004.7,   90.2, -999.0
24-06-2022, 00:45:38,    152,    0.3,   14.0,   0.00,   0.00, 1004.6,   89.9, -999.0
24-06-2022, 00:45:46,    153,    1.1,   13.8,   0.00,   0.00, 1004.7,   90.1, -999.0
24-06-2022, 00:45:56,    147,    0.9,   13.9,   0.00,   0.00, 1004.7,   90.1, -999.0
24-06-2022, 00:46:06,    150,    0.0,   13.8,   0.00,   0.00, 1004.5,   89.8, -999.0
24-06-2022, 00:46:16,    131,    0.5,   13.9,   0.00,   0.00, 1004.7,   90.1, -999.0
24-06-2022, 00:46:26,    172,    1.9,   13.9,   0.00,   0.00, 1004.6,   90.2, -999.0
24-06-2022, 00:46:36,    158,    0.7,   13.8,   0.00,   0.00, 1004.7,   90.1, -999.0